This is the latest recevied weather packets stored in our database for station/object W4NRG-1. If no packets are shown the sender has not sent any weather packets the latest 1 day(s).
| Time | Temp. | Humidity | Pressure | Rain* | Wind** | Luminosity | Snow |
|---|---|---|---|---|---|---|---|
| 1777989324 | 21.11° C | 56% | 1014.8 hPa | 0 mm | 1.34 m/s, 175° | - | - |
| 1777989020 | 21.11° C | 56% | 1014.8 hPa | 0 mm | 2.24 m/s, 77° | - | - |
| 1777988716 | 20.56° C | 57% | 1014.9 hPa | 0 mm | 1.79 m/s, 321° | - | - |
| 1777988413 | 20.56° C | 57% | 1014.7 hPa | 0 mm | 2.24 m/s, 325° | - | - |
| 1777988110 | 20.56° C | 58% | 1014.8 hPa | 0 mm | 0.89 m/s, 59° | - | - |
| 1777987806 | 20° C | 59% | 1014.9 hPa | 0 mm | 1.34 m/s, 138° | - | - |
| 1777987503 | 19.44° C | 60% | 1015 hPa | 0 mm | 3.13 m/s, 92° | - | - |
| 1777987201 | 19.44° C | 62% | 1014.9 hPa | 0 mm | 0.45 m/s, 160° | - | - |
| 1777986897 | 19.44° C | 61% | 1014.9 hPa | 0 mm | 0.45 m/s, 264° | - | - |
| 1777986595 | 19.44° C | 60% | 1015.1 hPa | 0 mm | 0.89 m/s, 305° | - | - |
| 1777986293 | 19.44° C | 60% | 1014.8 hPa | 0 mm | 1.34 m/s, 310° | - | - |
| 1777985990 | 19.44° C | 61% | 1015.1 hPa | 0 mm | 0.45 m/s, 346° | - | - |
| 1777985687 | 18.89° C | 61% | 1015.1 hPa | 0 mm | 0.45 m/s, 215° | - | - |
| 1777985384 | 18.89° C | 62% | 1014.9 hPa | 0 mm | 0.89 m/s, 87° | - | - |
| 1777985081 | 18.33° C | 63% | 1014.9 hPa | 0 mm | 4.02 m/s, 168° | - | - |
| 1777984777 | 18.33° C | 62% | 1014.9 hPa | 0 mm | 1.34 m/s, 73° | - | - |
| 1777984473 | 18.33° C | 64% | 1014.9 hPa | 0 mm | 0.45 m/s, 285° | - | - |
| 1777984169 | 18.33° C | 64% | 1014.9 hPa | 0 mm | 0.45 m/s, 321° | - | - |
| 1777983867 | 17.78° C | 64% | 1014.8 hPa | 0 mm | 0.89 m/s, 319° | - | - |
| 1777983563 | 18.33° C | 62% | 1014.8 hPa | 0 mm | 1.79 m/s, 354° | - | - |
| 1777983261 | 18.33° C | 62% | 1014.7 hPa | 0 mm | 1.79 m/s, 354° | - | - |
| 1777982956 | 18.33° C | 64% | 1014.6 hPa | 0 mm | 1.34 m/s, 88° | - | - |
| 1777982653 | 18.33° C | 64% | 1014.9 hPa | 0 mm | 1.34 m/s, 88° | - | - |
| 1777982049 | 17.78° C | 67% | 1014.7 hPa | 0 mm | 0.89 m/s, 45° | - | - |
| 1777981747 | 17.78° C | 67% | 1014.8 hPa | 0 mm | 0.89 m/s, 45° | - | - |
* Rain latest hour (hover to see other rain measurements)
** Current wind speed in m/s (hover to see current wind gust speed)